"read_dt","SO2 (ppb)","flags","PMT voltage (V)","lamp voltage (V)","lamp intensity (Hz)","internal temp (C)","react chamber temp (C)","sample flow (l/min)","pres (mmHg)","SO2 bkg (ppb)","SO2 coefficient"
2017-02-04 00:00:00,1802E-3,5C000000,-0724,0838,12234,028.1,045.5,0.437,745.1,01.17,0.508
2017-02-04 00:01:00,1735E-3,5C000000,-0724,0838,12042,028.1,045.5,0.437,745.1,01.17,0.508
2017-02-04 00:02:00,1817E-3,5C000000,-0724,0838,12215,028.1,045.4,0.437,745.1,01.17,0.508
2017-02-04 00:03:00,1947E-3,5C000000,-0724,0837,12112,028.1,045.4,0.437,745.0,01.17,0.508
2017-02-04 00:04:00,1866E-3,5C000000,-0724,0838,12022,028.1,045.5,0.438,745.0,01.17,0.508
2017-02-04 00:05:00,1823E-3,5C000000,-0724,0838,12016,028.1,045.5,0.437,745.0,01.17,0.508
2017-02-04 00:06:00,1795E-3,5C000000,-0724,0838,11935,028.1,045.5,0.437,745.0,01.17,0.508
2017-02-04 00:07:00,1882E-3,5C000000,-0724,0838,12068,028.1,045.5,0.437,745.0,01.17,0.508
2017-02-04 00:08:00,1773E-3,5C000000,-0724,0837,12062,028.1,045.5,0.438,745.0,01.17,0.508
2017-02-04 00:09:00,1939E-3,5C000000,-0724,0837,12000,028.1,045.5,0.437,745.1,01.17,0.508
2017-02-04 00:10:00,1859E-3,5C000000,-0724,0838,11921,028.1,045.5,0.437,744.9,01.17,0.508
2017-02-04 00:11:00,1794E-3,5C000000,-0724,0838,11925,028.1,045.5,0.437,745.0,01.17,0.508
2017-02-04 00:12:00,2075E-3,5C000000,-0724,0838,12074,028.0,045.5,0.437,745.0,01.17,0.508
2017-02-04 00:13:00,1938E-3,5C000000,-0724,0838,11900,028.1,045.5,0.437,745.0,01.17,0.508
2017-02-04 00:14:00,2095E-3,5C000000,-0724,0838,11994,028.1,045.5,0.437,745.0,01.17,0.508
2017-02-04 00:15:00,1718E-3,5C000000,-0724,0837,11879,028.1,045.5,0.437,745.0,01.17,0.508
2017-02-04 00:16:00,1921E-3,5C000000,-0724,0839,12100,028.1,045.5,0.437,744.9,01.17,0.508
2017-02-04 00:17:00,1873E-3,5C000000,-0724,0838,12081,028.0,045.5,0.437,745.0,01.17,0.508
2017-02-04 00:18:00,1810E-3,5C000000,-0724,0838,12140,028.1,045.5,0.437,745.1,01.17,0.508
2017-02-04 00:19:00,1931E-3,5C000000,-0724,0838,12086,028.1,045.5,0.437,745.1,01.17,0.508
2017-02-04 00:20:00,1985E-3,5C000000,-0724,0838,12133,028.0,045.5,0.438,745.1,01.17,0.508
2017-02-04 00:21:00,1814E-3,5C000000,-0724,0838,12179,028.1,045.5,0.437,745.1,01.17,0.508
2017-02-04 00:22:00,1931E-3,5C000000,-0724,0838,11965,028.0,045.5,0.437,745.2,01.17,0.508
2017-02-04 00:23:00,1792E-3,5C000000,-0724,0838,12015,028.0,045.5,0.437,745.1,01.17,0.508
2017-02-04 00:24:00,1886E-3,5C000000,-0724,0837,11989,028.1,045.5,0.438,745.2,01.17,0.508
2017-02-04 00:25:00,1776E-3,5C000000,-0724,0837,12001,028.0,045.5,0.438,745.2,01.17,0.508
2017-02-04 00:26:00,1764E-3,5C000000,-0724,0838,12027,028.0,045.5,0.437,745.1,01.17,0.508
2017-02-04 00:27:00,1929E-3,5C000000,-0724,0838,12028,028.0,045.4,0.437,745.1,01.17,0.508
2017-02-04 00:28:00,1837E-3,5C000000,-0724,0838,12116,028.0,045.5,0.437,745.2,01.17,0.508
2017-02-04 00:29:00,1849E-3,5C000000,-0724,0838,12084,028.0,045.5,0.438,745.2,01.17,0.508
2017-02-04 00:30:00,1843E-3,5C000000,-0724,0838,12057,028.0,045.5,0.437,745.2,01.17,0.508
2017-02-04 00:31:00,1829E-3,5C000000,-0724,0838,12052,028.0,045.5,0.437,745.2,01.17,0.508
2017-02-04 00:32:00,1917E-3,5C000000,-0724,0838,12023,028.0,045.5,0.437,745.2,01.17,0.508
2017-02-04 00:33:00,1875E-3,5C000000,-0724,0838,11972,028.0,045.4,0.438,745.2,01.17,0.508
2017-02-04 00:34:00,1870E-3,5C000000,-0724,0837,12009,028.0,045.5,0.437,745.2,01.17,0.508
2017-02-04 00:35:00,1841E-3,5C000000,-0724,0837,12150,028.0,045.5,0.437,745.2,01.17,0.508
2017-02-04 00:36:00,1775E-3,5C000000,-0724,0838,12010,028.0,045.5,0.437,745.3,01.17,0.508
2017-02-04 00:37:00,1795E-3,5C000000,-0724,0837,12160,028.0,045.5,0.438,745.3,01.17,0.508
2017-02-04 00:38:00,1787E-3,5C000000,-0724,0838,12072,028.0,045.5,0.437,745.3,01.17,0.508
2017-02-04 00:39:00,1818E-3,5C000000,-0724,0838,12060,028.0,045.5,0.437,745.2,01.17,0.508
2017-02-04 00:40:00,1897E-3,5C000000,-0724,0838,12067,028.0,045.4,0.437,745.3,01.17,0.508
2017-02-04 00:41:00,1801E-3,5C000000,-0724,0838,12018,028.0,045.5,0.437,745.3,01.17,0.508
2017-02-04 00:42:00,1908E-3,5C000000,-0724,0838,12150,028.0,045.5,0.438,745.4,01.17,0.508
2017-02-04 00:43:00,1789E-3,5C000000,-0724,0839,12135,028.0,045.5,0.437,745.4,01.17,0.508
2017-02-04 00:44:00,1843E-3,5C000000,-0724,0837,12126,028.0,045.5,0.437,745.4,01.17,0.508
2017-02-04 00:45:00,1699E-3,5C000000,-0724,0838,12269,028.0,045.5,0.437,745.3,01.17,0.508
2017-02-04 00:46:00,1931E-3,5C000000,-0724,0838,12038,028.0,045.5,0.438,745.3,01.17,0.508
2017-02-04 00:47:00,1926E-3,5C000000,-0724,0838,12061,028.0,045.5,0.438,745.4,01.17,0.508
2017-02-04 00:48:00,1947E-3,5C000000,-0724,0838,12048,028.0,045.4,0.437,745.4,01.17,0.508
2017-02-04 00:49:00,2036E-3,5C000000,-0724,0838,12063,028.0,045.4,0.437,745.4,01.17,0.508
2017-02-04 00:50:00,1734E-3,5C000000,-0724,0838,12070,028.0,045.5,0.438,745.5,01.17,0.508
2017-02-04 00:51:00,1776E-3,5C000000,-0724,0838,11992,028.0,045.5,0.438,745.3,01.17,0.508
2017-02-04 00:52:00,1915E-3,5C000000,-0724,0837,12084,028.0,045.5,0.437,745.4,01.17,0.508
2017-02-04 00:53:00,1794E-3,5C000000,-0724,0838,12094,028.0,045.5,0.437,745.4,01.17,0.508
2017-02-04 00:54:00,1883E-3,5C000000,-0724,0838,12003,028.0,045.4,0.437,745.4,01.17,0.508
2017-02-04 00:55:00,1895E-3,5C000000,-0724,0838,11986,028.0,045.4,0.438,745.4,01.17,0.508
2017-02-04 00:56:00,1840E-3,5C000000,-0724,0838,11982,028.0,045.5,0.438,745.5,01.17,0.508
2017-02-04 00:57:00,1881E-3,5C000000,-0724,0838,11981,028.0,045.5,0.437,745.4,01.17,0.508
2017-02-04 00:58:00,1996E-3,5C000000,-0724,0838,12056,028.0,045.5,0.437,745.4,01.17,0.508
2017-02-04 00:59:00,1952E-3,5C000000,-0724,0838,12078,028.0,045.4,0.437,745.5,01.17,0.508
2017-02-04 01:00:00,1854E-3,5C000000,-0724,0838,12144,028.0,045.4,0.438,745.5,01.17,0.508
2017-02-04 01:01:00,1881E-3,5C000000,-0724,0838,11996,028.0,045.5,0.438,745.4,01.17,0.508
2017-02-04 01:02:00,1788E-3,5C000000,-0724,0837,12062,028.0,045.5,0.437,745.4,01.17,0.508
2017-02-04 01:03:00,1801E-3,5C000000,-0724,0838,12072,028.0,045.5,0.437,745.4,01.17,0.508
2017-02-04 01:04:00,1887E-3,5C000000,-0724,0838,12158,028.0,045.4,0.437,745.5,01.17,0.508
2017-02-04 01:05:00,1841E-3,5C000000,-0724,0838,12205,028.0,045.4,0.438,745.5,01.17,0.508
2017-02-04 01:06:00,1855E-3,5C000000,-0724,0838,12017,028.0,045.5,0.438,745.5,01.17,0.508
2017-02-04 01:07:00,1878E-3,5C000000,-0724,0838,11867,028.0,045.5,0.437,745.5,01.17,0.508
2017-02-04 01:08:00,1877E-3,5C000000,-0724,0838,12016,028.0,045.5,0.437,745.5,01.17,0.508
2017-02-04 01:09:00,1923E-3,5C000000,-0724,0838,12163,028.0,045.5,0.438,745.6,01.17,0.508
2017-02-04 01:10:00,1844E-3,5C000000,-0724,0838,11946,028.0,045.5,0.438,745.5,01.17,0.508
2017-02-04 01:11:00,1869E-3,5C000000,-0724,0838,12128,028.0,045.5,0.437,745.5,01.17,0.508
2017-02-04 01:12:00,1770E-3,5C000000,-0724,0837,12217,028.0,045.5,0.437,745.5,01.17,0.508
2017-02-04 01:13:00,1917E-3,5C000000,-0724,0837,12125,028.0,045.5,0.437,745.5,01.17,0.508
2017-02-04 01:14:00,1909E-3,5C000000,-0724,0837,12133,028.0,045.5,0.438,745.5,01.17,0.508
2017-02-04 01:15:00,1938E-3,5C000000,-0724,0838,12019,028.0,045.5,0.438,745.5,01.17,0.508
2017-02-04 01:16:00,1866E-3,5C000000,-0724,0838,11988,028.0,045.4,0.437,745.6,01.17,0.508
2017-02-04 01:17:00,1849E-3,5C000000,-0724,0838,12195,028.0,045.4,0.437,745.6,01.17,0.508
2017-02-04 01:18:00,1829E-3,5C000000,-0724,0838,12013,028.0,045.5,0.438,745.7,01.17,0.508
2017-02-04 01:19:00,1834E-3,5C000000,-0724,0838,12089,028.0,045.5,0.438,745.5,01.17,0.508
2017-02-04 01:20:00,1928E-3,5C000000,-0724,0838,12086,028.0,045.5,0.438,745.7,01.17,0.508
2017-02-04 01:21:00,1791E-3,5C000000,-0724,0838,11760,028.0,045.4,0.437,745.6,01.17,0.508
2017-02-04 01:22:00,1913E-3,5C000000,-0724,0838,12045,028.0,045.4,0.438,745.6,01.17,0.508
2017-02-04 01:23:00,1971E-3,5C000000,-0724,0838,12088,028.0,045.5,0.438,745.7,01.17,0.508
2017-02-04 01:24:00,1932E-3,5C000000,-0724,0838,12076,028.0,045.4,0.438,745.7,01.17,0.508
2017-02-04 01:25:00,1924E-3,5C000000,-0724,0838,12096,028.0,045.5,0.437,745.7,01.17,0.508
2017-02-04 01:26:00,1898E-3,5C000000,-0724,0838,12192,028.0,045.4,0.437,745.5,01.17,0.508
2017-02-04 01:27:00,1868E-3,5C000000,-0724,0839,11847,028.0,045.5,0.438,745.7,01.17,0.508
2017-02-04 01:28:00,1845E-3,5C000000,-0724,0839,12123,028.0,045.5,0.438,745.6,01.17,0.508
2017-02-04 01:29:00,2070E-3,5C000000,-0724,0838,11978,028.0,045.5,0.438,745.6,01.17,0.508
2017-02-04 01:30:00,1892E-3,5C000000,-0724,0839,12034,028.0,045.5,0.437,745.7,01.17,0.508
2017-02-04 01:31:00,1877E-3,5C000000,-0724,0839,11996,028.0,045.4,0.437,745.7,01.17,0.508
2017-02-04 01:32:00,1927E-3,5C000000,-0724,0838,12033,028.0,045.5,0.437,745.8,01.17,0.508
2017-02-04 01:33:00,1717E-3,5C000000,-0724,0838,12005,028.0,045.4,0.438,745.7,01.17,0.508
2017-02-04 01:34:00,1824E-3,5C000000,-0724,0838,12089,028.0,045.4,0.438,745.7,01.17,0.508
2017-02-04 01:35:00,1901E-3,5C000000,-0724,0838,12043,028.0,045.5,0.438,745.7,01.17,0.508
2017-02-04 01:36:00,1860E-3,5C000000,-0724,0839,12151,028.0,045.5,0.437,745.8,01.17,0.508
2017-02-04 01:37:00,1854E-3,5C000000,-0724,0839,12099,028.0,045.5,0.437,745.8,01.17,0.508
2017-02-04 01:38:00,2030E-3,5C000000,-0724,0838,12011,028.0,045.5,0.438,745.8,01.17,0.508
2017-02-04 01:39:00,1721E-3,5C000000,-0724,0838,11998,028.0,045.4,0.438,745.8,01.17,0.508
2017-02-04 01:40:00,1934E-3,5C000000,-0724,0838,12013,028.0,045.4,0.438,745.8,01.17,0.508
2017-02-04 01:41:00,1821E-3,5C000000,-0724,0839,11958,028.0,045.5,0.437,745.8,01.17,0.508
2017-02-04 01:42:00,1760E-3,5C000000,-0724,0839,11952,028.0,045.4,0.437,745.8,01.17,0.508
2017-02-04 01:43:00,1839E-3,5C000000,-0724,0838,11928,028.0,045.4,0.438,745.8,01.17,0.508
2017-02-04 01:44:00,1866E-3,5C000000,-0724,0839,12119,028.0,045.4,0.438,745.8,01.17,0.508
2017-02-04 01:45:00,1858E-3,5C000000,-0724,0838,12085,028.0,045.4,0.438,745.8,01.17,0.508
2017-02-04 01:46:00,1809E-3,5C000000,-0724,0838,12051,028.0,045.4,0.438,745.8,01.17,0.508
2017-02-04 01:47:00,1835E-3,5C000000,-0724,0838,12054,028.0,045.4,0.437,745.8,01.17,0.508
2017-02-04 01:48:00,1847E-3,5C000000,-0724,0838,12049,028.0,045.4,0.438,745.8,01.17,0.508
2017-02-04 01:49:00,1783E-3,5C000000,-0724,0838,12075,028.0,045.4,0.438,745.8,01.17,0.508
2017-02-04 01:50:00,1774E-3,5C000000,-0724,0838,12055,028.0,045.5,0.438,745.8,01.17,0.508
2017-02-04 01:51:00,1892E-3,5C000000,-0724,0838,12089,028.0,045.4,0.437,745.8,01.17,0.508
2017-02-04 01:52:00,1849E-3,5C000000,-0724,0838,12098,028.0,045.4,0.437,745.8,01.17,0.508
2017-02-04 01:53:00,1880E-3,5C000000,-0724,0838,12183,028.0,045.4,0.438,745.8,01.17,0.508
2017-02-04 01:54:00,1924E-3,5C000000,-0724,0838,12047,028.0,045.4,0.438,745.8,01.17,0.508
2017-02-04 01:55:00,1877E-3,5C000000,-0724,0838,12005,028.0,045.4,0.438,745.8,01.17,0.508
2017-02-04 01:56:00,1832E-3,5C000000,-0724,0838,12050,028.0,045.4,0.437,745.8,01.17,0.508
2017-02-04 01:57:00,1747E-3,5C000000,-0724,0837,12043,028.0,045.4,0.437,745.8,01.17,0.508
2017-02-04 01:58:00,1868E-3,5C000000,-0724,0837,12167,028.0,045.4,0.438,745.8,01.17,0.508
2017-02-04 01:59:00,1787E-3,5C000000,-0724,0838,12100,028.0,045.4,0.438,745.8,01.17,0.508
2017-02-04 02:00:00,1839E-3,5C000000,-0724,0837,12041,028.0,045.5,0.438,745.8,01.17,0.508
2017-02-04 02:01:00,1795E-3,5C000000,-0724,0837,12041,028.0,045.5,0.437,745.8,01.17,0.508
2017-02-04 02:02:00,1852E-3,5C000000,-0724,0837,12002,028.0,045.5,0.437,745.8,01.17,0.508
2017-02-04 02:03:00,1795E-3,5C000000,-0724,0838,12096,028.0,045.5,0.438,745.8,01.17,0.508
2017-02-04 02:04:00,1794E-3,5C000000,-0724,0839,12059,028.0,045.4,0.438,745.8,01.17,0.508
2017-02-04 02:05:00,1801E-3,5C000000,-0724,0838,12008,028.0,045.4,0.438,745.8,01.17,0.508
2017-02-04 02:06:00,1946E-3,5C000000,-0724,0838,11993,028.0,045.4,0.437,745.8,01.17,0.508
2017-02-04 02:07:00,1885E-3,5C000000,-0724,0837,12067,028.0,045.5,0.437,745.8,01.17,0.508
2017-02-04 02:08:00,1888E-3,5C000000,-0724,0838,12078,028.0,045.4,0.438,745.8,01.17,0.508
2017-02-04 02:09:00,1889E-3,5C000000,-0724,0838,11964,028.0,045.4,0.438,745.8,01.17,0.508
2017-02-04 02:10:00,1825E-3,5C000000,-0724,0838,12125,028.0,045.4,0.438,745.8,01.17,0.508
2017-02-04 02:11:00,1917E-3,5C000000,-0724,0837,12009,028.0,045.4,0.437,745.9,01.17,0.508
2017-02-04 02:12:00,1797E-3,5C000000,-0724,0839,12145,028.0,045.4,0.437,745.7,01.17,0.508
2017-02-04 02:13:00,1976E-3,5C000000,-0724,0838,11984,028.0,045.4,0.438,745.8,01.17,0.508
2017-02-04 02:14:00,1909E-3,5C000000,-0724,0838,12137,028.0,045.4,0.438,745.9,01.17,0.508
2017-02-04 02:15:00,1819E-3,5C000000,-0724,0838,11960,028.0,045.4,0.438,745.8,01.17,0.508
2017-02-04 02:16:00,1936E-3,5C000000,-0724,0838,11900,027.9,045.5,0.438,745.8,01.17,0.508
2017-02-04 02:17:00,1878E-3,5C000000,-0724,0838,12003,028.0,045.4,0.437,745.8,01.17,0.508
2017-02-04 02:18:00,1843E-3,5C000000,-0724,0838,12157,028.0,045.4,0.437,745.8,01.17,0.508
2017-02-04 02:19:00,1855E-3,5C000000,-0724,0838,12120,028.0,045.4,0.438,745.9,01.17,0.508
2017-02-04 02:20:00,1962E-3,5C000000,-0724,0837,12190,028.0,045.5,0.438,745.9,01.17,0.508
2017-02-04 02:21:00,1942E-3,5C000000,-0724,0838,12124,028.0,045.5,0.438,745.9,01.17,0.508
2017-02-04 02:22:00,1802E-3,5C000000,-0724,0837,12044,028.0,045.5,0.437,745.9,01.17,0.508
2017-02-04 02:23:00,1897E-3,5C000000,-0724,0838,12066,028.0,045.5,0.437,745.9,01.17,0.508
2017-02-04 02:24:00,1860E-3,5C000000,-0724,0838,12036,028.0,045.5,0.438,745.9,01.17,0.508
2017-02-04 02:25:00,1864E-3,5C000000,-0724,0838,12020,028.0,045.5,0.438,745.9,01.17,0.508
2017-02-04 02:26:00,1773E-3,5C000000,-0724,0837,11979,028.0,045.4,0.438,745.9,01.17,0.508
2017-02-04 02:27:00,1851E-3,5C000000,-0724,0838,12053,028.0,045.4,0.438,745.9,01.17,0.508
2017-02-04 02:28:00,1759E-3,5C000000,-0724,0837,11986,028.0,045.4,0.437,745.9,01.17,0.508
2017-02-04 02:29:00,1717E-3,5C000000,-0724,0837,11949,028.0,045.4,0.437,745.9,01.17,0.508
2017-02-04 02:30:00,1810E-3,5C000000,-0724,0837,12051,028.0,045.4,0.438,745.9,01.17,0.508
2017-02-04 02:31:00,1960E-3,5C000000,-0724,0838,12009,027.9,045.5,0.438,745.9,01.17,0.508
2017-02-04 02:32:00,1736E-3,5C000000,-0724,0838,12092,028.0,045.4,0.438,745.9,01.17,0.508
2017-02-04 02:33:00,1810E-3,5C000000,-0724,0838,12110,027.9,045.4,0.437,745.9,01.17,0.508
2017-02-04 02:34:00,1786E-3,5C000000,-0724,0837,12067,027.9,045.4,0.437,745.9,01.17,0.508
2017-02-04 02:35:00,1802E-3,5C000000,-0724,0837,12028,028.0,045.4,0.438,745.9,01.17,0.508
2017-02-04 02:36:00,1779E-3,5C000000,-0724,0837,11970,028.0,045.4,0.438,745.9,01.17,0.508
2017-02-04 02:37:00,2017E-3,5C000000,-0724,0837,12075,028.0,045.5,0.438,746.0,01.17,0.508
2017-02-04 02:38:00,1908E-3,5C000000,-0724,0837,12016,028.0,045.4,0.437,746.0,01.17,0.508
2017-02-04 02:39:00,1862E-3,5C000000,-0724,0836,12189,027.9,045.4,0.437,745.9,01.17,0.508
2017-02-04 02:40:00,1784E-3,5C000000,-0724,0838,12042,028.0,045.4,0.438,746.0,01.17,0.508
2017-02-04 02:41:00,2003E-3,5C000000,-0724,0838,12069,027.9,045.4,0.438,746.0,01.17,0.508
2017-02-04 02:42:00,1775E-3,5C000000,-0724,0839,12067,028.0,045.4,0.438,746.0,01.17,0.508
2017-02-04 02:43:00,1778E-3,5C000000,-0724,0837,12062,027.9,045.4,0.438,746.0,01.17,0.508
2017-02-04 02:44:00,1840E-3,5C000000,-0724,0838,12033,028.0,045.4,0.437,746.0,01.17,0.508
2017-02-04 02:45:00,1689E-3,5C000000,-0724,0838,12012,027.9,045.5,0.437,746.1,01.17,0.508
2017-02-04 02:46:00,1869E-3,5C000000,-0724,0836,12063,027.9,045.4,0.438,746.0,01.17,0.508
2017-02-04 02:47:00,1825E-3,5C000000,-0724,0837,12062,028.0,045.4,0.438,746.0,01.17,0.508
2017-02-04 02:48:00,2033E-3,5C000000,-0724,0837,12022,027.9,045.4,0.438,746.0,01.17,0.508
2017-02-04 02:49:00,1959E-3,5C000000,-0724,0836,11935,028.0,045.4,0.438,746.0,01.17,0.508
2017-02-04 02:50:00,1927E-3,5C000000,-0724,0838,11850,028.0,045.4,0.437,746.1,01.17,0.508
2017-02-04 02:51:00,1762E-3,5C000000,-0724,0838,12023,028.0,045.5,0.437,746.0,01.17,0.508
2017-02-04 02:52:00,1946E-3,5C000000,-0724,0838,12058,027.9,045.5,0.438,746.1,01.17,0.508
2017-02-04 02:53:00,1823E-3,5C000000,-0724,0839,12061,028.0,045.4,0.438,746.0,01.17,0.508
2017-02-04 02:54:00,1826E-3,5C000000,-0724,0838,12043,027.9,045.4,0.438,746.1,01.17,0.508
2017-02-04 02:55:00,1922E-3,5C000000,-0724,0839,12004,028.0,045.4,0.438,746.1,01.17,0.508
2017-02-04 02:56:00,1835E-3,5C000000,-0724,0838,12062,027.9,045.5,0.437,746.1,01.17,0.508
2017-02-04 02:57:00,1792E-3,5C000000,-0724,0839,12031,027.9,045.4,0.437,746.1,01.17,0.508
2017-02-04 02:58:00,1798E-3,5C000000,-0724,0838,12040,027.9,045.5,0.438,746.1,01.17,0.508
2017-02-04 02:59:00,1912E-3,5C000000,-0724,0839,11986,028.0,045.4,0.438,746.1,01.17,0.508
2017-02-04 03:00:00,1931E-3,5C000000,-0724,0838,11979,028.0,045.5,0.438,746.1,01.17,0.508
2017-02-04 03:01:00,1854E-3,5C000000,-0724,0838,12122,027.9,045.5,0.438,746.1,01.17,0.508
2017-02-04 03:02:00,1886E-3,5C000000,-0724,0838,12048,028.0,045.4,0.438,746.1,01.17,0.508
2017-02-04 03:03:00,2079E-3,5C000000,-0724,0839,12019,028.0,045.5,0.437,746.1,01.17,0.508
2017-02-04 03:04:00,1923E-3,5C000000,-0724,0838,12079,028.0,045.5,0.438,746.1,01.17,0.508
2017-02-04 03:05:00,1870E-3,5C000000,-0724,0837,12026,028.0,045.4,0.438,746.1,01.17,0.508
2017-02-04 03:06:00,1804E-3,5C000000,-0724,0838,12128,028.0,045.4,0.438,746.1,01.17,0.508
2017-02-04 03:07:00,1820E-3,5C000000,-0724,0838,11961,027.9,045.4,0.438,746.1,01.17,0.508
2017-02-04 03:08:00,1875E-3,5C000000,-0724,0838,11959,028.0,045.4,0.437,746.1,01.17,0.508
2017-02-04 03:09:00,1821E-3,5C000000,-0724,0838,12036,027.9,045.4,0.437,746.1,01.17,0.508
2017-02-04 03:10:00,1771E-3,5C000000,-0724,0838,11894,028.0,045.4,0.438,746.1,01.17,0.508
2017-02-04 03:11:00,1791E-3,5C000000,-0724,0839,12022,027.9,045.4,0.438,746.1,01.17,0.508
2017-02-04 03:12:00,1860E-3,5C000000,-0724,0838,12067,027.9,045.4,0.438,746.1,01.17,0.508
2017-02-04 03:13:00,1911E-3,5C000000,-0724,0838,12081,028.0,045.4,0.438,746.1,01.17,0.508
2017-02-04 03:14:00,1902E-3,5C000000,-0724,0838,12248,027.9,045.4,0.437,746.1,01.17,0.508
2017-02-04 03:15:00,1802E-3,5C000000,-0724,0838,12196,027.9,045.4,0.437,746.1,01.17,0.508
2017-02-04 03:16:00,1834E-3,5C000000,-0724,0838,12137,027.9,045.4,0.438,746.1,01.17,0.508
2017-02-04 03:17:00,1793E-3,5C000000,-0724,0838,12136,027.9,045.4,0.438,746.1,01.17,0.508
2017-02-04 03:18:00,1952E-3,5C000000,-0724,0838,12184,028.0,045.4,0.438,746.1,01.17,0.508
2017-02-04 03:19:00,1961E-3,5C000000,-0724,0838,12089,027.9,045.4,0.438,746.1,01.17,0.508
2017-02-04 03:20:00,1865E-3,5C000000,-0724,0838,12092,028.0,045.4,0.437,746.2,01.17,0.508
2017-02-04 03:21:00,1926E-3,5C000000,-0724,0838,12105,027.9,045.4,0.437,746.2,01.17,0.508
2017-02-04 03:22:00,1713E-3,5C000000,-0724,0837,12070,028.0,045.4,0.438,746.1,01.17,0.508
2017-02-04 03:23:00,1944E-3,5C000000,-0724,0838,12034,027.9,045.4,0.438,746.1,01.17,0.508
2017-02-04 03:24:00,1864E-3,5C000000,-0724,0838,12059,027.9,045.4,0.438,746.1,01.17,0.508
2017-02-04 03:25:00,1742E-3,5C000000,-0724,0838,12092,027.9,045.4,0.438,746.1,01.17,0.508
2017-02-04 03:26:00,1844E-3,5C000000,-0724,0837,12019,027.9,045.5,0.438,746.1,01.17,0.508
2017-02-04 03:27:00,1998E-3,5C000000,-0724,0839,11934,027.9,045.4,0.437,746.1,01.17,0.508
2017-02-04 03:28:00,1906E-3,5C000000,-0724,0837,11874,027.9,045.4,0.438,746.1,01.17,0.508
2017-02-04 03:29:00,1869E-3,5C000000,-0724,0838,11997,027.9,045.4,0.438,746.2,01.17,0.508
2017-02-04 03:30:00,1937E-3,5C000000,-0724,0839,12096,027.9,045.4,0.438,746.2,01.17,0.508
2017-02-04 03:31:00,1906E-3,5C000000,-0724,0838,12005,027.9,045.4,0.438,746.2,01.17,0.508
2017-02-04 03:32:00,2056E-3,5C000000,-0724,0837,12048,027.9,045.4,0.438,746.2,01.17,0.508
2017-02-04 03:33:00,1880E-3,5C000000,-0724,0838,12106,027.9,045.4,0.437,746.1,01.17,0.508
2017-02-04 03:34:00,1963E-3,5C000000,-0724,0838,11971,027.9,045.4,0.438,746.1,01.17,0.508
2017-02-04 03:35:00,1909E-3,5C000000,-0724,0838,12066,027.9,045.4,0.438,746.2,01.17,0.508
2017-02-04 03:36:00,1857E-3,5C000000,-0724,0837,11922,027.9,045.5,0.438,746.1,01.17,0.508
2017-02-04 03:37:00,1978E-3,5C000000,-0724,0838,11978,027.9,045.5,0.438,746.2,01.17,0.508
2017-02-04 03:38:00,2015E-3,5C000000,-0724,0838,12047,027.9,045.4,0.437,746.2,01.17,0.508
2017-02-04 03:39:00,1929E-3,5C000000,-0724,0837,11933,027.9,045.4,0.438,746.2,01.17,0.508
2017-02-04 03:40:00,1982E-3,5C000000,-0724,0837,12096,027.9,045.4,0.438,746.2,01.17,0.508
2017-02-04 03:41:00,1905E-3,5C000000,-0724,0838,11957,027.9,045.4,0.438,746.2,01.17,0.508
2017-02-04 03:42:00,1782E-3,5C000000,-0724,0837,12060,027.9,045.4,0.438,746.1,01.17,0.508
2017-02-04 03:43:00,1921E-3,5C000000,-0724,0838,11980,027.9,045.5,0.438,746.1,01.17,0.508
2017-02-04 03:44:00,2044E-3,5C000000,-0724,0838,12150,027.9,045.4,0.437,746.1,01.17,0.508
2017-02-04 03:45:00,1757E-3,5C000000,-0724,0837,12078,027.9,045.4,0.438,746.2,01.17,0.508
2017-02-04 03:46:00,2027E-3,5C000000,-0724,0839,11970,027.9,045.5,0.438,746.2,01.17,0.508
2017-02-04 03:47:00,1816E-3,5C000000,-0724,0839,12059,027.9,045.4,0.438,746.1,01.17,0.508
2017-02-04 03:48:00,1948E-3,5C000000,-0724,0838,11980,027.9,045.5,0.438,746.2,01.17,0.508
2017-02-04 03:49:00,1906E-3,5C000000,-0724,0838,12121,027.9,045.5,0.437,746.2,01.17,0.508
2017-02-04 03:50:00,1733E-3,5C000000,-0724,0838,12130,027.9,045.4,0.438,746.2,01.17,0.508
2017-02-04 03:51:00,1870E-3,5C000000,-0724,0837,12060,027.9,045.4,0.438,746.2,01.17,0.508
2017-02-04 03:52:00,1850E-3,5C000000,-0724,0838,12037,027.9,045.4,0.438,746.3,01.17,0.508
2017-02-04 03:53:00,1880E-3,5C000000,-0724,0838,11892,027.9,045.4,0.438,746.3,01.17,0.508
2017-02-04 03:54:00,1849E-3,5C000000,-0724,0838,12025,027.9,045.5,0.437,746.3,01.17,0.508
2017-02-04 03:55:00,1808E-3,5C000000,-0724,0838,12059,027.9,045.5,0.437,746.3,01.17,0.508
2017-02-04 03:56:00,1784E-3,5C000000,-0724,0837,11960,027.9,045.4,0.438,746.3,01.17,0.508
2017-02-04 03:57:00,1877E-3,5C000000,-0724,0838,12026,027.9,045.5,0.438,746.3,01.17,0.508
2017-02-04 03:58:00,1737E-3,5C000000,-0724,0838,11990,027.9,045.4,0.438,746.3,01.17,0.508
2017-02-04 03:59:00,1891E-3,5C000000,-0724,0838,12201,027.9,045.4,0.438,746.3,01.17,0.508
2017-02-04 04:00:00,1910E-3,5C000000,-0724,0838,11945,027.9,045.5,0.438,746.3,01.17,0.508
2017-02-04 04:01:00,1890E-3,5C000000,-0724,0837,12070,027.9,045.4,0.438,746.4,01.17,0.508
2017-02-04 04:02:00,1813E-3,5C000000,-0724,0838,12059,027.9,045.4,0.438,746.3,01.17,0.508
2017-02-04 04:03:00,1948E-3,5C000000,-0724,0838,12079,027.9,045.4,0.438,746.3,01.17,0.508
2017-02-04 04:04:00,1853E-3,5C000000,-0724,0837,12112,027.9,045.4,0.438,746.3,01.17,0.508
2017-02-04 04:05:00,1772E-3,5C000000,-0724,0837,12170,027.9,045.4,0.438,746.3,01.17,0.508
2017-02-04 04:06:00,1719E-3,5C000000,-0724,0837,11964,027.9,045.4,0.438,746.3,01.17,0.508
2017-02-04 04:07:00,1720E-3,5C000000,-0724,0838,11996,027.9,045.4,0.437,746.3,01.17,0.508
2017-02-04 04:08:00,1920E-3,5C000000,-0724,0838,12112,027.9,045.4,0.438,746.4,01.17,0.508
2017-02-04 04:09:00,1878E-3,5C000000,-0724,0838,11986,027.9,045.4,0.438,746.3,01.17,0.508
2017-02-04 04:10:00,1773E-3,5C000000,-0724,0838,12101,027.9,045.4,0.438,746.4,01.17,0.508
2017-02-04 04:11:00,1682E-3,5C000000,-0724,0838,12030,027.9,045.4,0.438,746.4,01.17,0.508
2017-02-04 04:12:00,1741E-3,5C000000,-0724,0837,12099,027.9,045.4,0.438,746.3,01.17,0.508
2017-02-04 04:13:00,1913E-3,5C000000,-0724,0838,12161,027.9,045.5,0.438,746.4,01.17,0.508
2017-02-04 04:14:00,1753E-3,5C000000,-0724,0838,12004,027.9,045.4,0.438,746.3,01.17,0.508
2017-02-04 04:15:00,1904E-3,5C000000,-0724,0838,12142,027.9,045.5,0.438,746.3,01.17,0.508
2017-02-04 04:16:00,2005E-3,5C000000,-0724,0837,11927,027.9,045.4,0.438,746.4,01.17,0.508
2017-02-04 04:17:00,1841E-3,5C000000,-0724,0838,12140,027.9,045.4,0.438,746.4,01.17,0.508
2017-02-04 04:18:00,1918E-3,5C000000,-0724,0838,11992,027.9,045.4,0.438,746.3,01.17,0.508
2017-02-04 04:19:00,1846E-3,5C000000,-0724,0838,12081,027.9,045.5,0.438,746.3,01.17,0.508
2017-02-04 04:20:00,1853E-3,5C000000,-0724,0838,11851,027.9,045.4,0.437,746.4,01.17,0.508